Fullerton, CA

6:28 AM PST on February 27, 2017 (GMT -0800)
Fullerton Municipal

Weather History for KFUL - December, 2014

Change the Weather History Date:

Saturday, December 20, 2014

  Actual Average Record
Temperature  
Mean Temperature 57 °F 56 °F  
Max Temperature 65 °F 67 °F 80 °F (1999)
Min Temperature 49 °F 44 °F 37 °F (2006)
Degree Days  
Heating Degree Days 8 9  
Month to date heating degree days 77 174  
Since 1 July heating degree days 101 338  
Cooling Degree Days 0 0  
Month to date cooling degree days 2 0  
Year to date cooling degree days 2111 1251  
Growing Degree Days 7 (Base 50)    
Moisture  
Dew Point 49 °F    
Average Humidity 73    
Maximum Humidity 89    
Minimum Humidity 56    
Precipitation  
Precipitation 0.00 in 0.06 in 1.35 in (2010)
Month to date precipitation 3.09 0.95  
Year to date precipitation 7.33 12.78  
Since 1 July precipitation 3.87  
Snow  
Snow 0.00 in - - ()
Month to date snowfall 0.0  
Year to date snowfall 0.0  
Snow Depth 0.00 in    
Sea Level Pressure  
Sea Level Pressure 30.14 in    
Wind  
Wind Speed 1 mph (ESE)    
Max Wind Speed 8 mph    
Max Gust Speed 10 mph    
Visibility 8 miles    
Events      
T = Trace of Precipitation, MM = Missing Value Source: NWS Daily Summary

Daily Weather History Graph

Daily Weather History Graph

Search for Another Location

Airport or City:

Trip Planner

Search our weather history database for the weather conditions in past years. The results will help you decide how hot, cold, wet, or windy it might be!

Date:

Astronomy

Dec. 20, 2014 Rise Set
Actual Time 6:52 AM PST 4:46 PM PST
Civil Twilight 6:24 AM PST 5:14 PM PST
Nautical Twilight 5:53 AM PST 5:45 PM PST
Astronomical Twilight 5:23 AM PST 6:16 PM PST
Moon 5:17 AM PST (12/20) 3:58 PM PST (12/20)
Length of Visible Light 10h 49m
Length of Day
9h 54m
Waning Crescent, 2% of the Moon is Illuminated
Dec 20
Waning Crescent
Dec 21
New
Dec 28
First Quarter
Jan 4
Full
Jan 13
Last Quarter

Hourly Weather History & Observations

Time (PST) Temp. Dew Point Humidity Pressure Visibility Wind Dir Wind Speed Gust Speed Precip Events Conditions
12:53 AM 52.0 °F 48.0 °F 86% 30.17 in 7.0 mi Calm Calm - N/A   Clear
1:53 AM 51.1 °F 48.0 °F 89% 30.14 in 7.0 mi ENE 3.5 mph - N/A   Clear
2:53 AM 51.1 °F 46.9 °F 86% 30.15 in 8.0 mi Calm Calm - N/A   Clear
3:53 AM 50.0 °F 46.0 °F 86% 30.14 in 6.0 mi Calm Calm - N/A   Clear
4:53 AM 50.0 °F 46.0 °F 86% 30.13 in 6.0 mi East 3.5 mph - N/A   Clear
5:53 AM 50.0 °F 46.0 °F 86% 30.14 in 5.0 mi Calm Calm - N/A   Clear
6:53 AM 50.0 °F 46.0 °F 86% 30.17 in 5.0 mi Calm Calm - N/A   Clear
7:53 AM 51.1 °F 46.9 °F 86% 30.17 in 4.0 mi ENE 3.5 mph - N/A   Clear
8:53 AM 55.0 °F 48.9 °F 80% 30.19 in 5.0 mi Calm Calm - N/A   Haze
9:53 AM 59.0 °F 50.0 °F 72% 30.19 in 7.0 mi East 4.6 mph - N/A   Clear
10:53 AM 62.1 °F 48.0 °F 60% 30.17 in 9.0 mi Calm Calm - N/A   Clear
11:53 AM 62.1 °F 46.9 °F 58% 30.15 in 10.0 mi Calm Calm - N/A   Clear
12:15 PM 62.1 °F 48.0 °F 60% 30.15 in 10.0 mi Calm Calm - N/A   Mostly Cloudy
12:30 PM 64.0 °F 48.0 °F 56% 30.15 in 10.0 mi Calm Calm - N/A   Scattered Clouds
12:53 PM 63.0 °F 48.0 °F 58% 30.14 in 10.0 mi Calm Calm - N/A   Mostly Cloudy
1:40 PM 64.0 °F 50.0 °F 60% 30.11 in 10.0 mi Calm Calm - N/A   Mostly Cloudy
1:53 PM 64.0 °F 48.9 °F 58% 30.11 in 10.0 mi Calm Calm - N/A   Scattered Clouds
2:53 PM 63.0 °F 50.0 °F 63% 30.11 in 9.0 mi WSW 3.5 mph - N/A   Scattered Clouds
3:33 PM 63.0 °F 50.0 °F 63% 30.11 in 8.0 mi SSW 4.6 mph - N/A   Mostly Cloudy
3:53 PM 63.0 °F 50.0 °F 63% 30.11 in 8.0 mi SW 3.5 mph - N/A   Mostly Cloudy
4:19 PM 62.1 °F 51.1 °F 67% 30.12 in 9.0 mi SW 5.8 mph - N/A   Overcast
4:53 PM 62.1 °F 52.0 °F 70% 30.13 in 9.0 mi Calm Calm - N/A   Overcast
5:53 PM 62.1 °F 52.0 °F 70% 30.13 in 10.0 mi ESE 3.5 mph - N/A   Overcast
6:10 PM 61.0 °F 52.0 °F 72% 30.12 in 10.0 mi SE 3.5 mph - N/A   Overcast
6:53 PM 61.0 °F 52.0 °F 72% 30.14 in 10.0 mi Calm Calm - N/A   Overcast
7:53 PM 59.0 °F 52.0 °F 78% 30.14 in 9.0 mi East 4.6 mph - N/A   Partly Cloudy
8:24 PM 59.0 °F 51.1 °F 75% 30.14 in 9.0 mi East 4.6 mph - N/A   Mostly Cloudy
8:53 PM 59.0 °F 51.1 °F 75% 30.15 in 9.0 mi Calm Calm - N/A   Mostly Cloudy
9:53 PM 57.9 °F 50.0 °F 75% 30.14 in 9.0 mi East 5.8 mph - N/A   Mostly Cloudy
10:25 PM 57.0 °F 51.1 °F 81% 30.14 in 8.0 mi East 4.6 mph - N/A   Mostly Cloudy
10:53 PM 57.9 °F 50.0 °F 75% 30.14 in 7.0 mi ESE 3.5 mph - N/A   Mostly Cloudy
11:53 PM 55.0 °F 48.9 °F 80% 30.14 in 5.0 mi Calm Calm - N/A   Haze